Weather History for Fremont, NE

Change the Weather History Date:

Sunday, December 8, 2013

  Actual Average Record
Temperature  
Mean Temperature 8 °F -  
Max Temperature 17 °F 37 °F 59 °F (1984)
Min Temperature 0 °F 18 °F -7 °F (1976)
Degree Days  
Heating Degree Days 56    
Moisture  
Dew Point 10 °F    
Average Humidity 90    
Maximum Humidity 96    
Minimum Humidity 84    
Precipitation  
Precipitation 0.02 in - - ()
Sea Level Pressure  
Sea Level Pressure 30.13 in    
Wind  
Wind Speed 7 mph (East)    
Max Wind Speed 13 mph    
Max Gust Speed -    
Visibility 4 miles    
Events Snow    
Averages and records for this station are not official NWS values.
T = Trace of Precipitation, MM = Missing Value Source: NWS Daily Summary

Daily Weather History Graph

Daily Weather History Graph

Search for Another Location

Airport:

Trip Planner

Search our weather history database for the weather conditions in past years. The results will help you decide how hot, cold, wet, or windy it might be!

Date:

Astronomy

Dec. 08, 2013 Rise Set
Actual Time 7:39 AM CST 4:56 PM CST
Civil Twilight 7:08 AM CST 5:27 PM CST
Nautical Twilight 6:34 AM CST 6:02 PM CST
Astronomical Twilight 6:00 AM CST 6:35 PM CST
Moon 11:57 AM CST (12/8) 11:50 PM CST (12/8)
Length of Visible Light 10h 18m
Length of Day
9h 16m
Waxing Crescent, 40% of the Moon is Illuminated
Dec 8
Waxing Crescent
Dec 9
First Quarter
Dec 17
Full
Dec 25
Last Quarter
Jan 1
New

Hourly Weather History & Observations

Time (CST) Temp. Windchill Dew Point Humidity Pressure Visibility Wind Dir Wind Speed Gust Speed Precip Events Conditions
12:15 AM 11.1 °F -2.4 °F 8.6 °F 90% 30.37 in 2.0 mi East 10.4 mph - N/A Snow Light Snow
12:35 AM 11.3 °F -2.9 °F 9.0 °F 90% 30.35 in 2.5 mi East 11.5 mph - N/A Snow Light Snow
12:55 AM 11.3 °F -2.2 °F 8.8 °F 90% 30.33 in 2.5 mi East 10.4 mph - N/A Snow Light Snow
1:15 AM 11.3 °F -2.9 °F 8.6 °F 89% 30.32 in 3.0 mi East 11.5 mph - N/A Snow Light Snow
1:35 AM 11.3 °F -3.6 °F 8.6 °F 89% 30.31 in 2.5 mi East 12.7 mph - N/A Snow Light Snow
1:55 AM 11.3 °F -1.3 °F 8.8 °F 90% 30.30 in 2.5 mi East 9.2 mph - N/A Snow Light Snow
2:15 AM 11.3 °F -2.2 °F 8.6 °F 89% 30.28 in 2.5 mi East 10.4 mph - N/A Snow Light Snow
2:35 AM 11.3 °F -2.9 °F 8.6 °F 89% 30.27 in 2.5 mi East 11.5 mph - N/A Snow Light Snow
2:55 AM 11.3 °F -0.4 °F 9.1 °F 91% 30.26 in 2.5 mi East 8.1 mph - N/A Snow Light Snow
3:15 AM 11.7 °F 0.0 °F 9.5 °F 91% 30.26 in 1.8 mi East 8.1 mph - N/A Snow Light Snow
3:35 AM 11.8 °F 0.3 °F 9.5 °F 90% 30.24 in 1.5 mi East 8.1 mph - N/A Snow Light Snow
3:55 AM 11.8 °F -0.7 °F 10.0 °F 92% 30.22 in 1.8 mi East 9.2 mph - N/A Snow Light Snow
4:15 AM 12.0 °F 0.5 °F 9.9 °F 91% 30.21 in 1.8 mi East 8.1 mph - N/A Snow Light Snow
4:35 AM 12.0 °F 0.5 °F 10.2 °F 92% 30.20 in 1.5 mi East 8.1 mph - N/A Snow Light Snow
4:55 AM 12.2 °F 0.7 °F 10.2 °F 92% 30.19 in 1.8 mi East 8.1 mph - N/A Snow Light Snow
5:15 AM 12.2 °F 1.7 °F 10.2 °F 92% 30.18 in 1.2 mi East 6.9 mph - N/A Snow Light Snow
5:35 AM 12.0 °F 2.7 °F 10.2 °F 92% 30.17 in 1.5 mi East 5.8 mph - N/A Snow Light Snow
5:55 AM 12.2 °F 4.3 °F 10.4 °F 92% 30.16 in 1.8 mi East 4.6 mph - N/A Snow Light Snow
6:15 AM 12.2 °F 2.9 °F 10.4 °F 92% 30.16 in 2.0 mi East 5.8 mph - N/A Snow Light Snow
6:35 AM 12.2 °F 2.9 °F 10.4 °F 92% 30.15 in 2.5 mi East 5.8 mph - 0.01 in Snow Light Snow
6:55 AM 12.6 °F 2.2 °F 10.4 °F 91% 30.15 in 3.0 mi East 6.9 mph - 0.01 in Snow Light Snow
7:15 AM 12.6 °F 4.8 °F 10.6 °F 92% 30.14 in 2.5 mi ESE 4.6 mph - N/A Snow Light Snow
7:35 AM 12.6 °F - 10.8 °F 92% 30.14 in 3.0 mi Calm Calm - N/A Snow Light Snow
7:55 AM 12.7 °F 6.7 °F 10.9 °F 92% 30.15 in 1.5 mi East 3.5 mph - N/A Snow Light Snow
8:15 AM 12.9 °F 5.2 °F 11.1 °F 93% 30.14 in 1.5 mi East 4.6 mph - N/A Snow Light Snow
8:35 AM 13.1 °F 7.1 °F 11.3 °F 93% 30.13 in 0.8 mi East 3.5 mph - N/A Snow Light Snow
8:55 AM 13.1 °F 5.4 °F 11.3 °F 93% 30.13 in 0.8 mi East 4.6 mph - N/A Snow Light Snow
9:15 AM 13.3 °F 5.6 °F 11.3 °F 92% 30.13 in 1.0 mi East 4.6 mph - N/A Snow Light Snow
9:35 AM 13.6 °F 6.0 °F 11.5 °F 91% 30.13 in 1.2 mi East 4.6 mph - N/A Snow Light Snow
9:55 AM 14.0 °F 5.1 °F 11.3 °F 89% 30.13 in 1.5 mi East 5.8 mph - N/A Snow Light Snow
10:15 AM 14.5 °F 4.6 °F 11.3 °F 87% 30.12 in 1.8 mi ESE 6.9 mph - N/A Snow Light Snow
10:35 AM 14.9 °F 5.0 °F 11.7 °F 87% 30.11 in 2.0 mi ESE 6.9 mph - N/A Snow Light Snow
10:55 AM 14.9 °F 6.1 °F 11.3 °F 86% 30.10 in 2.5 mi East 5.8 mph - N/A Snow Light Snow
11:15 AM 15.3 °F 7.9 °F 11.5 °F 85% 30.10 in 4.0 mi East 4.6 mph - N/A Snow Light Snow
11:35 AM 15.8 °F 7.2 °F 11.7 °F 84% 30.09 in 5.0 mi ESE 5.8 mph - N/A Snow Light Snow
11:55 AM 15.8 °F 6.1 °F 11.8 °F 84% 30.07 in 2.5 mi East 6.9 mph - N/A Snow Light Snow
12:15 PM 16.2 °F 10.6 °F 12.4 °F 85% 30.06 in 1.5 mi East 3.5 mph - N/A Snow Light Snow
12:35 PM 16.2 °F 9.0 °F 12.2 °F 84% 30.04 in 1.5 mi East 4.6 mph - N/A Snow Light Snow
12:55 PM 16.3 °F 9.2 °F 12.4 °F 84% 30.04 in 1.8 mi East 4.6 mph - 0.01 in Snow Light Snow
1:15 PM 16.3 °F 10.8 °F 12.6 °F 85% 30.03 in 1.5 mi ESE 3.5 mph - N/A Snow Light Snow
1:35 PM 16.7 °F - 12.6 °F 84% 30.03 in 1.5 mi Calm Calm - N/A Snow Light Snow
1:55 PM 16.7 °F - 12.7 °F 84% 30.02 in 1.8 mi Calm Calm - N/A Snow Light Snow
2:15 PM 16.7 °F - 13.1 °F 86% 30.02 in 1.8 mi Calm Calm - N/A Snow Light Snow
2:35 PM 17.4 °F - 14.0 °F 86% 30.01 in 1.8 mi Calm Calm - N/A Snow Light Snow
2:55 PM 16.7 °F - 13.8 °F 88% 30.01 in 1.5 mi Calm Calm - N/A Snow Light Snow
3:15 PM 16.5 °F - 13.6 °F 88% 30.01 in 2.5 mi Calm Calm - N/A Snow Light Snow
3:35 PM 16.3 °F - 13.3 °F 88% 30.01 in 2.5 mi Calm Calm - N/A Snow Light Snow
3:55 PM 16.5 °F 11.0 °F 13.6 °F 88% 30.01 in 3.0 mi NNW 3.5 mph - N/A Snow Light Snow
4:15 PM 16.3 °F 10.8 °F 13.1 °F 87% 30.02 in 5.0 mi NNW 3.5 mph - N/A Snow Light Snow
4:35 PM 16.3 °F 10.8 °F 13.6 °F 89% 30.03 in 7.0 mi NW 3.5 mph - N/A Snow Light Snow
4:55 PM 16.2 °F 9.0 °F 13.6 °F 90% 30.03 in 10.0 mi NW 4.6 mph - N/A Snow Light Snow
5:15 PM 16.0 °F 8.8 °F 13.6 °F 90% 30.04 in 5.0 mi WNW 4.6 mph - N/A Snow Light Snow
5:35 PM 15.8 °F 7.2 °F 13.5 °F 90% 30.04 in 5.0 mi WNW 5.8 mph - N/A Snow Light Snow
5:55 PM 15.6 °F 5.9 °F 13.6 °F 92% 30.04 in 5.0 mi WNW 6.9 mph - N/A Snow Light Snow
6:15 PM 15.6 °F 5.9 °F 13.1 °F 90% 30.05 in 7.0 mi WNW 6.9 mph - N/A Snow Light Snow
6:35 PM 15.4 °F 6.8 °F 13.1 °F 90% 30.06 in 7.0 mi West 5.8 mph - N/A Snow Light Snow
6:55 PM 15.3 °F 6.6 °F 13.1 °F 91% 30.08 in 10.0 mi West 5.8 mph - N/A   Mostly Cloudy
7:15 PM 14.9 °F 6.1 °F 13.1 °F 93% 30.10 in 5.0 mi West 5.8 mph - N/A Snow Light Snow
7:35 PM 14.7 °F 5.9 °F 12.9 °F 93% 30.10 in 7.0 mi West 5.8 mph - N/A   Scattered Clouds
7:55 PM 14.5 °F 5.7 °F 13.1 °F 94% 30.10 in 5.0 mi West 5.8 mph - N/A Snow Light Snow
8:15 PM 13.1 °F 2.8 °F 11.5 °F 93% 30.11 in 3.0 mi West 6.9 mph - N/A Snow Light Snow
8:35 PM 10.8 °F 4.5 °F 9.5 °F 95% 30.11 in 4.0 mi West 3.5 mph - N/A Snow Light Snow
8:55 PM 7.3 °F -1.3 °F 6.4 °F 96% 30.11 in 7.0 mi West 4.6 mph - N/A Snow Light Snow
9:15 PM 5.2 °F -5.4 °F 3.9 °F 95% 30.10 in 10.0 mi West 5.8 mph - N/A   Clear
9:35 PM 6.4 °F -6.3 °F 5.4 °F 95% 30.11 in 10.0 mi West 8.1 mph - N/A   Clear
9:55 PM 7.0 °F -5.7 °F 5.5 °F 94% 30.11 in 10.0 mi West 8.1 mph - N/A   Clear
10:15 PM 8.1 °F -5.3 °F 7.2 °F 96% 30.13 in 10.0 mi West 9.2 mph - N/A   Clear
10:35 PM 6.3 °F -5.4 °F 5.0 °F 95% 30.14 in 10.0 mi West 6.9 mph - N/A   Clear
10:55 PM 0.9 °F -10.5 °F -1.1 °F 91% 30.14 in 7.0 mi WNW 5.8 mph - N/A Snow Light Snow
11:15 PM -0.8 °F -13.9 °F -3.3 °F 89% 30.14 in 10.0 mi West 6.9 mph - N/A   Clear
11:35 PM 1.9 °F -12.9 °F -0.0 °F 91% 30.15 in 10.0 mi West 9.2 mph - N/A   Clear
11:55 PM 1.4 °F -11.3 °F -0.6 °F 91% 30.14 in 10.0 mi West 6.9 mph - N/A   Clear